CW5689 Weather Reports


Display with metric or nautical units.
time (UTC)temp
F
wind
direction
speed
MPH
gust
MPH
rain 1hr
in
rain 24hr
in
rain mn
in
humidity
%
barometer
mb
20260502164015 59 189 6.0 15.0 0.00 0.00 0.00 36 1016.9
20260502163515 58 213 7.0 15.0 0.00 0.00 0.00 37 1017.0
20260502163041 58 209 4.0 14.0 0.00 0.00 0.00 37 1017.1
20260502162515 58 355 4.0 14.0 0.00 0.00 0.00 32 1017.2
20260502162015 59 289 7.0 14.0 0.00 0.00 0.00 36 1017.3
20260502161555 58 232 5.0 11.0 0.00 0.00 0.00 36 1017.4
20260502161026 58 248 5.0 12.0 0.00 0.00 0.00 38 1017.3
20260502160514 58 195 4.0 13.0 0.00 0.00 0.00 35 1017.4
20260502152017 56 215 6.0 12.0 0.00 0.00 0.00 36 1017.8
20260502151532 56 286 3.0 13.0 0.00 0.00 0.00 41 1017.8
20260502151017 56 288 5.0 13.0 0.00 0.00 0.00 39 1017.8
20260502150518 56 272 4.0 11.0 0.00 0.00 0.00 38 1017.8
20260502130519 44 0 2.0 3.0 0.00 0.00 0.00 68 1018.3
20260502123517 39 0 0.0 3.0 0.00 0.00 0.00 81 1018.3
20260502123107 38 0 0.0 3.0 0.00 0.00 0.00 82 1018.3
20260502122517 37 207 1.0 3.0 0.00 0.00 0.00 83 1018.3
20260502122024 37 0 0.0 0.0 0.00 0.00 0.00 84 1018.3
20260502121532 36 0 0.0 0.0 0.00 0.00 0.00 85 1018.3
20260502121018 36 0 0.0 0.0 0.00 0.00 0.00 85 1018.3
20260502120519 35 0 0.0 0.0 0.00 0.00 0.00 86 1018.4
20260502115520 34 0 0.0 6.0 0.00 0.00 0.00 88 1018.3
20260502115018 33 207 1.0 6.0 0.00 0.00 0.00 87 1018.3
20260502114536 33 205 3.0 6.0 0.00 0.00 0.00 87 1018.2
20260502114018 33 210 2.0 5.0 0.00 0.00 0.00 87 1018.2
20260502113517 33 217 3.0 5.0 0.00 0.00 0.00 87 1018.2
20260502113051 32 271 3.0 4.0 0.00 0.00 0.00 88 1018.2
20260502112516 32 0 0.0 0.0 0.00 0.00 0.00 88 1018.3
20260502112019 32 0 0.0 0.0 0.00 0.00 0.00 88 1018.3
20260502111533 32 0 0.0 0.0 0.00 0.00 0.00 87 1018.2
20260502111018 32 0 0.0 0.0 0.00 0.00 0.00 87 1018.2
20260502110521 32 0 0.0 0.0 0.00 0.00 0.00 86 1018.2
20260502110044 32 0 0.0 0.0 0.00 0.00 0.00 86 1018.3
20260502105518 32 0 0.0 0.0 0.00 0.00 0.00 86 1018.3
20260502105018 32 0 0.0 0.0 0.00 0.00 0.00 87 1018.3
20260502104539 32 0 0.0 0.0 0.00 0.00 0.00 87 1018.3
20260502104018 32 0 0.0 0.0 0.00 0.00 0.00 87 1018.2
20260502103517 32 0 0.0 0.0 0.00 0.00 0.00 87 1018.2
20260502103035 32 0 0.0 0.0 0.00 0.00 0.00 86 1018.2
20260502102518 32 0 0.0 0.0 0.00 0.00 0.00 86 1018.1
20260502102030 32 0 0.0 0.0 0.00 0.00 0.00 86 1018.1
20260502101535 32 0 0.0 0.0 0.00 0.00 0.00 86 1018.1
20260502101020 32 0 0.0 0.0 0.00 0.00 0.00 86 1018.1
20260502100517 32 0 0.0 0.0 0.00 0.00 0.00 86 1018.1
20260502091018 33 0 0.0 0.0 0.00 0.00 0.00 84 1017.9
20260502090518 33 0 0.0 0.0 0.00 0.00 0.00 83 1017.8
20260502071535 34 325 2.0 4.0 0.00 0.00 0.00 79 1018.0
20260502071021 34 325 1.0 4.0 0.00 0.00 0.00 79 1018.1
20260502070521 34 325 2.0 3.0 0.00 0.00 0.00 79 1018.0
20260502070035 34 325 2.0 3.0 0.00 0.00 0.00 79 1018.1
20260502065518 34 325 1.0 3.0 0.00 0.00 0.00 78 1018.1
20260502065019 34 325 2.0 3.0 0.00 0.00 0.00 78 1018.1
20260502064535 35 325 2.0 3.0 0.00 0.00 0.00 77 1018.2
20260502064017 35 325 1.0 3.0 0.00 0.00 0.00 77 1018.2
20260502063518 35 325 2.0 3.0 0.00 0.00 0.00 77 1018.3
20260502063051 35 325 1.0 3.0 0.00 0.00 0.00 77 1018.3
20260502062517 35 325 2.0 3.0 0.00 0.00 0.00 76 1018.3
20260502062017 35 325 2.0 3.0 0.00 0.00 0.00 76 1018.3
20260502061535 35 325 2.0 3.0 0.00 0.00 0.00 75 1018.3
20260502061017 35 325 2.0 3.0 0.00 0.00 0.00 75 1018.3
20260502060518 36 325 2.0 3.0 0.00 0.00 0.00 75 1018.3
20260502060034 36 325 2.0 3.0 0.00 0.00 0.00 74 1018.3
20260502055517 36 325 2.0 3.0 0.00 0.00 0.00 74 1018.3
20260502055017 36 325 1.0 3.0 0.00 0.00 0.00 74 1018.4
20260502054534 36 325 1.0 3.0 0.00 0.00 0.00 73 1018.3
20260502054017 36 325 2.0 4.0 0.00 0.00 0.00 73 1018.3
20260502053517 37 325 2.0 4.0 0.00 0.00 0.00 72 1018.4
20260502053038 37 325 2.0 4.0 0.00 0.00 0.00 72 1018.4
20260502052517 37 325 2.0 4.0 0.00 0.00 0.00 72 1018.3
20260502052019 37 326 2.0 4.0 0.00 0.00 0.00 71 1018.3
20260502051538 37 327 2.0 4.0 0.00 0.00 0.00 71 1018.4
20260502051017 37 328 2.0 4.0 0.00 0.00 0.00 71 1018.4
20260502050517 37 328 2.0 4.0 0.00 0.00 0.00 70 1018.3
20260502050039 38 330 2.0 3.0 0.00 0.00 0.00 70 1018.3
20260502045517 38 330 1.0 3.0 0.00 0.00 0.00 70 1018.3
20260502045017 38 330 1.0 3.0 0.00 0.00 0.00 69 1018.3
20260502044536 38 330 1.0 3.0 0.00 0.00 0.00 69 1018.2
20260502044016 38 330 2.0 4.0 0.00 0.00 0.00 69 1018.2
20260502043516 39 330 1.0 4.0 0.00 0.00 0.00 69 1018.2
20260502043035 39 330 2.0 4.0 0.00 0.00 0.00 67 1018.3
20260502042518 39 330 1.0 3.0 0.00 0.00 0.00 67 1018.3
20260502042018 39 330 2.0 3.0 0.00 0.00 0.00 67 1018.3
20260502041532 40 330 2.0 4.0 0.00 0.00 0.00 66 1018.3
20260502041017 40 331 1.0 4.0 0.00 0.00 0.00 65 1018.3
20260502040517 40 331 2.0 3.0 0.00 0.00 0.00 66 1018.3
20260502040035 40 332 2.0 3.0 0.00 0.00 0.00 65 1018.3
20260502035516 41 332 2.0 3.0 0.00 0.00 0.00 64 1018.3
20260502035017 41 332 2.0 3.0 0.00 0.00 0.00 64 1018.4
20260502034533 41 0 0.0 2.0 0.00 0.00 0.00 63 1018.4
20260502034017 41 0 0.0 2.0 0.00 0.00 0.00 63 1018.5
20260502033517 41 333 1.0 3.0 0.00 0.00 0.00 62 1018.5
20260502033043 41 333 1.0 3.0 0.00 0.00 0.00 62 1018.5
20260502032517 41 333 1.0 3.0 0.00 0.00 0.00 61 1018.5
20260502032017 41 0 0.0 3.0 0.00 0.00 0.00 62 1018.5
20260502031535 41 0 0.0 3.0 0.00 0.00 0.00 62 1018.5
20260502031017 41 333 1.0 3.0 0.00 0.00 0.00 62 1018.5
20260502030518 41 333 1.0 3.0 0.00 0.00 0.00 62 1018.5
20260502030034 42 333 2.0 3.0 0.00 0.00 0.00 61 1018.5
20260502025517 42 333 2.0 3.0 0.00 0.00 0.00 60 1018.5
20260502025017 42 333 2.0 3.0 0.00 0.00 0.00 60 1018.4
20260502024533 42 333 2.0 4.0 0.00 0.00 0.00 59 1018.3
20260502024017 43 333 2.0 4.0 0.00 0.00 0.00 58 1018.3
20260502023517 43 333 2.0 4.0 0.00 0.00 0.00 58 1018.4
20260502023032 43 334 2.0 4.0 0.00 0.00 0.00 56 1018.4
20260502022517 44 334 2.0 4.0 0.00 0.00 0.00 55 1018.3
20260502022017 44 334 2.0 4.0 0.00 0.00 0.00 55 1018.2
20260502021536 44 337 2.0 4.0 0.00 0.00 0.00 53 1018.3
20260502021017 45 337 3.0 4.0 0.00 0.00 0.00 51 1018.2
20260502020517 45 0 0.0 0.0 0.00 0.00 0.00 50 1018.1
20260502020035 46 0 0.0 0.0 0.00 0.00 0.00 46 1018.1
20260502015517 46 0 0.0 0.0 0.00 0.00 0.00 50 1018.1
20260502015017 47 0 0.0 0.0 0.00 0.00 0.00 48 1018.0
20260502014535 47 0 0.0 0.0 0.00 0.00 0.00 48 1017.9
20260502014016 48 0 0.0 0.0 0.00 0.00 0.00 46 1017.9
20260502013517 48 0 0.0 0.0 0.00 0.00 0.00 45 1017.9
20260502013034 49 0 0.0 0.0 0.00 0.00 0.00 43 1017.8
20260502012518 49 0 0.0 0.0 0.00 0.00 0.00 41 1017.8
20260502012024 50 0 0.0 0.0 0.00 0.00 0.00 39 1017.8
20260502011537 50 0 0.0 0.0 0.00 0.00 0.00 39 1017.7
20260502011016 50 0 0.0 0.0 0.00 0.00 0.00 37 1017.8
20260502010519 51 0 0.0 3.0 0.00 0.00 0.00 36 1017.8
20260502010048 51 0 0.0 3.0 0.00 0.00 0.00 37 1017.7
20260502005519 51 0 0.0 5.0 0.00 0.00 0.00 36 1017.8
20260502005019 51 0 0.0 5.0 0.00 0.00 0.00 34 1017.8
20260502004547 52 342 1.0 6.0 0.00 0.00 0.00 34 1017.8
20260502004019 52 0 1.0 6.0 0.00 0.00 0.00 34 1017.8
20260502003516 52 56 0.0 5.0 0.00 0.00 0.00 34 1017.7
20260502003032 52 57 0.0 5.0 0.00 0.00 0.00 34 1017.7
20260502002515 52 0 0.0 4.0 0.00 0.00 0.00 34 1017.8
20260502002019 53 350 1.0 4.0 0.00 0.00 0.00 32 1017.7
20260502001535 53 342 0.0 5.0 0.00 0.00 0.00 34 1017.7
20260502001019 53 311 0.0 5.0 0.00 0.00 0.00 36 1017.7
20260502000519 53 313 2.0 5.0 0.00 0.00 0.00 33 1017.6
20260502000033 53 0 1.0 9.0 0.00 0.00 0.00 32 1017.7
20260501235521 53 331 3.0 9.0 0.00 0.00 0.00 33 1017.7
20260501235019 53 271 4.0 9.0 0.00 0.00 0.00 32 1017.7
20260501234537 53 282 2.0 8.0 0.00 0.00 0.00 33 1017.7
20260501234022 53 309 1.0 6.0 0.00 0.00 0.00 32 1017.7
20260501233519 53 319 1.0 6.0 0.00 0.00 0.00 33 1017.7
20260501233039 53 322 1.0 7.0 0.00 0.00 0.00 32 1017.8
20260501232518 53 319 3.0 7.0 0.00 0.00 0.00 33 1017.7
20260501232019 53 278 3.0 8.0 0.00 0.00 0.00 32 1017.8
20260501231535 53 319 3.0 8.0 0.00 0.00 0.00 35 1017.8
20260501231021 53 0 1.0 5.0 0.00 0.00 0.00 39 1017.8
20260501230519 53 37 3.0 7.0 0.00 0.00 0.00 39 1017.8
20260501230035 53 7 3.0 7.0 0.00 0.00 0.00 37 1017.8
20260501225516 53 34 2.0 8.0 0.00 0.00 0.00 39 1017.7
20260501225015 53 36 3.0 8.0 0.00 0.00 0.00 40 1017.8
20260501224534 53 25 3.0 9.0 0.00 0.00 0.00 39 1017.9
20260501224019 53 33 3.0 9.0 0.00 0.00 0.00 43 1017.8
20260501223522 53 342 3.0 9.0 0.00 0.00 0.00 39 1017.8
20260501223037 53 26 2.0 7.0 0.00 0.00 0.00 35 1017.9
20260501222519 53 342 3.0 11.0 0.00 0.00 0.00 37 1017.9
20260501222019 53 342 3.0 11.0 0.00 0.00 0.00 33 1017.9
20260501221535 53 32 3.0 8.0 0.00 0.00 0.00 34 1017.9
20260501221019 53 9 3.0 8.0 0.00 0.00 0.00 37 1017.9
20260501220522 53 304 1.0 8.0 0.00 0.00 0.00 34 1017.9
20260501220036 53 293 2.0 8.0 0.00 0.00 0.00 36 1018.0
20260501215516 53 15 2.0 12.0 0.00 0.00 0.00 32 1018.0
20260501215017 53 338 3.0 12.0 0.00 0.00 0.00 35 1018.0
20260501214534 53 45 2.0 6.0 0.00 0.00 0.00 42 1018.0
20260501214018 54 43 3.0 10.0 0.00 0.00 0.00 41 1017.9
20260501213515 54 0 2.0 10.0 0.00 0.00 0.00 35 1017.9
20260501213044 54 341 2.0 11.0 0.00 0.00 0.00 37 1018.0
20260501212515 54 38 4.0 11.0 0.00 0.00 0.00 41 1018.0
20260501212015 54 34 3.0 9.0 0.00 0.00 0.00 46 1018.0
20260501211533 54 338 2.0 9.0 0.00 0.00 0.00 35 1018.0
20260501211019 53 261 1.0 6.0 0.00 0.00 0.00 39 1018.0
20260501210519 53 0 1.0 6.0 0.00 0.00 0.00 41 1018.1
20260501210042 53 29 2.0 7.0 0.00 0.00 0.00 48 1018.1
20260501205522 53 45 3.0 7.0 0.00 0.00 0.00 48 1018.1
20260501205019 52 64 2.0 8.0 0.00 0.00 0.00 44 1018.1
20260501204536 52 56 4.0 8.0 0.00 0.00 0.00 40 1018.1
20260501204018 51 48 3.0 6.0 0.00 0.00 0.00 44 1018.1
20260501203518 51 41 3.0 6.0 0.00 0.00 0.00 41 1018.2
20260501203035 52 17 3.0 9.0 0.00 0.00 0.00 44 1018.3
20260501202519 52 36 3.0 9.0 0.00 0.00 0.00 44 1018.2
20260501202019 52 26 3.0 6.0 0.00 0.00 0.00 45 1018.3
20260501201535 52 57 3.0 6.0 0.00 0.00 0.00 45 1018.3
20260501201015 52 51 4.0 11.0 0.00 0.00 0.00 44 1018.3
20260501200518 52 22 3.0 11.0 0.00 0.00 0.00 42 1018.3
20260501200038 53 28 4.0 11.0 0.00 0.00 0.00 39 1018.4
20260501195522 53 1 4.0 12.0 0.00 0.00 0.00 38 1018.3
20260501195018 53 279 3.0 12.0 0.00 0.00 0.00 42 1018.3
20260501194539 52 342 3.0 12.0 0.00 0.00 0.00 40 1018.3
20260501194018 52 16 4.0 11.0 0.00 0.00 0.00 40 1018.5
20260501193519 53 17 5.0 11.0 0.00 0.00 0.00 36 1018.4
20260501193036 53 22 5.0 10.0 0.00 0.00 0.00 38 1018.4
20260501192519 53 43 4.0 8.0 0.00 0.00 0.00 45 1018.4
20260501192017 53 44 3.0 9.0 0.00 0.00 0.00 44 1018.4
20260501191535 54 51 4.0 9.0 0.00 0.00 0.00 41 1018.4
20260501191019 54 41 4.0 7.0 0.00 0.00 0.00 43 1018.4
20260501190517 54 42 4.0 11.0 0.00 0.00 0.00 46 1018.3
20260501190035 53 28 4.0 11.0 0.00 0.00 0.00 43 1018.4
20260501185516 53 42 4.0 10.0 0.00 0.00 0.00 43 1018.5
20260501185016 54 34 3.0 10.0 0.00 0.00 0.00 34 1018.5
20260501184532 54 5 3.0 10.0 0.00 0.00 0.00 39 1018.4
20260501184020 54 45 5.0 11.0 0.00 0.00 0.00 38 1018.4
20260501183520 54 35 5.0 11.0 0.00 0.00 0.00 47 1018.4
20260501183035 53 53 4.0 12.0 0.00 0.00 0.00 39 1018.4
20260501182521 53 45 4.0 12.0 0.00 0.00 0.00 39 1018.4
20260501182018 53 34 4.0 12.0 0.00 0.00 0.00 39 1018.5
20260501181537 53 22 3.0 12.0 0.00 0.00 0.00 39 1018.4
20260501181019 53 25 4.0 12.0 0.00 0.00 0.00 37 1018.6
20260501180517 53 360 6.0 12.0 0.00 0.00 0.00 39 1018.6
20260501180045 53 34 5.0 9.0 0.00 0.00 0.00 43 1018.5
20260501175519 53 47 3.0 9.0 0.00 0.00 0.00 42 1018.5
20260501175018 52 36 3.0 9.0 0.00 0.00 0.00 42 1018.6
20260501174537 52 13 4.0 12.0 0.00 0.00 0.00 40 1018.7
20260501174025 52 46 5.0 15.0 0.00 0.00 0.00 46 1018.7
20260501173516 52 34 5.0 15.0 0.00 0.00 0.00 40 1018.8
20260501173038 53 339 5.0 15.0 0.00 0.00 0.00 47 1018.7
20260501172518 52 13 3.0 12.0 0.00 0.00 0.00 41 1018.7